Tracking 29059 objects as of 18-Jun-2024
HD Live streaming from Space Station
objects crossing your sky now

STARLINK-5186

Track STARLINK-5186 now!
10-day predictions
STARLINK-5186 is classified as:


NORAD ID: 54177
Int'l Code: 2022-141W
Perigee: 545.8 km
Apogee: 548.0 km
Inclination: 53.2 °
Period: 95.4 minutes
Semi major axis: 6917 km
RCS: Unknown
Launch date: October 28, 2022
Source: United States (US)
Launch site: AIR FORCE WESTERN TEST RANGE (AFWTR)
Your satellite tracking list
Your tracking list is empty




NASA's NSSDC Master Catalog

Two Line Element Set (TLE):
1 54177U 22141W   24169.38289512  .00001678  00000-0  12351-3 0  9991
2 54177  53.2185 313.6138 0001575  87.5419 272.5753 15.08843352 90703
Source of the keplerian elements: AFSPC